Home > Time Zones > World Clock > Weather > Chad > Sarh > Past weeks

Flag Weather past 2 weeks in Sarh, Chad

Now
72 °F

Sunny.


Feels Like: 69 °F
Forecast: 70 / 96 °F
Wind: No wind

Location: Sarh Airport

Current Time: Oct 31, 2014 at 7:57:49 AM

Latest Report: Oct 31, 2014 at 7:00 AM


Visibility: 10 mi

Pressure: 29.89 "Hg

Humidity: 88%

Dew point: 68 °F

Location of SarhLocation

Historic Weather in Sarh — Graph

°F

Sarh temperature yesterday

Maximum temperature yesterday: 95 °F (at 1:00 PM)
Minimum temperature yesterday: 68 °F (at 6:00 AM)
Average temperature yesterday: 81 °F

Past Weeks' High & Low Weather Summary

 TemperatureHumidityPressure
High97 °F (Oct 27, 1:00 PM)94% (Oct 16, 7:00 AM)30.01 "Hg (Oct 16, 7:00 AM)
Low68 °F (Oct 30, 6:00 AM)25% (Oct 27, 2:00 PM)29.80 "Hg (Oct 16, 5:00 PM)
Average81 °F70%29.89 "Hg
* Reported Oct 16 7:00 AM — Oct 31 6:00 AM, Sarh, Weather by CustomWeather, © 2014

Note: Actual official high and low records may vary slightly from our data, if they occured in-between our weather recording intervals... More about our weather records

Advertising

Sarh weather history for previous 24 hours

 ConditionsComfort  
Time TempWeatherWind HumidityBarometerVisibility
6:00 AM
Oct 31
68 °FMild.No wind94%29.92 "HgN/A
5:00 AM68 °FMild.No wind88%29.89 "HgN/A
4:00 AM68 °FMild.No wind94%29.86 "HgN/A
3:00 AM79 °FWarm.No wind61%29.86 "HgN/A
2:00 AM70 °FMild.No wind83%29.86 "HgN/A
1:00 AM70 °FClear.No wind88%29.86 "Hg10 mi
12:00 AM73 °FClear.No wind74%29.86 "Hg10 mi
11:00 PM
Oct 30
77 °FClear.No wind69%29.86 "Hg10 mi
10:00 PM79 °FWarm.No wind65%29.89 "HgN/A
9:00 PM79 °FClear.No wind65%29.89 "Hg10 mi
8:00 PM81 °FWarm.No wind66%29.86 "HgN/A
7:00 PM81 °FWarm.No wind58%29.86 "HgN/A
6:00 PM84 °FClear.No wind51%29.86 "Hg10 mi
5:00 PM90 °FSunny.No wind33%29.83 "Hg10 mi
4:00 PM91 °FSunny.7 mph34%29.83 "Hg10 mi
3:00 PM95 °FSunny.7 mph25%29.83 "Hg10 mi
2:00 PM95 °FSunny.9 mph25%29.86 "Hg10 mi
1:00 PM95 °FSunny.9 mph32%29.86 "Hg10 mi
12:00 PM91 °FHot.7 mph38%29.86 "HgN/A
11:00 AM90 °FHot.5 mph43%29.89 "HgN/A
10:00 AM88 °FWarm.No wind49%29.89 "HgN/A
9:00 AM84 °FWarm.3 mph55%29.92 "HgN/A
8:00 AM79 °FWarm.3 mph74%29.89 "HgN/A
7:00 AM72 °FSunny.No wind88%29.86 "Hg10 mi
Weather by CustomWeather, © 2014

See weather overviewHow to use our weather pages